This demonstration page uses our WeatherBlox Daily Observations layout. Learn more.

41.55636, -103.73856

Hourly Observations for April 18, 2015

Temp ( °F °C ) Dew Point ( °F °C ) Humidity (%) Winds ( mph kmh ) Pressure ( in mb ) Visibility ( mi km ) Precip ( " mm )
12:22 am 00:22 Cloudy with Rain 43 6 43 6 100 100 W 8 13 30.09 1019 3 4.82802 0 0
12:27 am 00:27 Cloudy with Rain 42 5.6 42 5.6 100 100 W 8 13 30.09 1019 2.5 4.02335 0.12 3.048
12:39 am 00:39 Cloudy with Rain 42 5.6 42 5.6 100 100 W 13 20 30.06 1018 4 6.43736 0.18 4.572
12:53 am 00:53 Cloudy with Light Rain 42 5.6 42 5.6 100 100 W 12 19 30.03 1017 7 11.26538 0.21 5.334
1:53 am 01:53 Cloudy with Rain 42 5.6 42 5.6 100 100 W 10 17 30.01 1016 4 6.43736 0.1 2.54
2:46 am 02:46 Cloudy with Light Rain 42 5.6 42 5.6 100 100 W 8 13 30 1016 9 14.48406 0.05 1.27
2:53 am 02:53 Cloudy with Light Rain 42 5.6 42 5.6 100 100 W 8 13 29.97 1015 9 14.48406 0.05 1.27
3:53 am 03:53 Cloudy with Light Rain 42 5.6 42 5.6 100 100 W 7 11 29.96 1015 10 16.0934 0.01 0.254
4:53 am 04:53 Cloudy with Light Rain 42 5.6 42 5.6 100 100 WNW 5 7 29.95 1014 10 16.0934 0.03 0.762
5:20 am 05:20 Cloudy with Light Rain 43 6 43 6 100 100 NNW 7 11 29.94 1014 10 16.0934 0 0
5:53 am 05:53 Cloudy 43 6 N/A N/A N 9 15 29.91 1013 10 16.0934 0 0.0254
6:11 am 06:11 Cloudy 43 6 N/A N/A SW 5 7 29.94 1014 8 12.87472 0 0
6:23 am 06:23 Cloudy 43 6 N/A N/A SW 5 7 29.94 1014 9 14.48406 0 0
6:53 am 06:53 Cloudy 43 6 N/A N/A W 5 7 29.93 1013 7 11.26538 0 0
7:18 am 07:18 Cloudy 43 6 N/A N/A W 9 15 29.94 1014 7 11.26538 0 0
7:53 am 07:53 Cloudy 45 7 N/A N/A WNW 7 11 29.92 1013 7 11.26538 0 0
8:53 am 08:53 Cloudy 46 8 N/A N/A W 5 7 29.92 1013 10 16.0934 0 0
9:53 am 09:53 Cloudy 48 9 N/A N/A Calm 29.91 1013 10 16.0934 0 0
10:19 am 10:19 Cloudy 48 9 N/A N/A WNW 3 6 29.91 1013 10 16.0934 0 0
10:40 am 10:40 Cloudy 48 9 N/A N/A SSE 5 7 29.91 1013 10 16.0934 0 0
10:53 am 10:53 Cloudy 48 9 N/A N/A SE 5 7 29.92 1013 10 16.0934 0 0
11:53 am 11:53 Cloudy 52 11 N/A N/A VRB 5 7 29.9 1013 10 16.0934 0 0
12:13 pm 12:13 Partly Cloudy 54 12 N/A N/A E 6 9 29.85 1011 10 16.0934 0 0
12:49 pm 12:49 Mostly Cloudy 55 13 N/A N/A VRB 5 7 29.85 1011 10 16.0934 0 0
12:53 pm 12:53 Mostly Cloudy 55 13 N/A N/A VRB 3 6 29.87 1012 10 16.0934 0 0
1:53 pm 13:53 Mostly Sunny 55 13 N/A N/A SE 7 11 29.85 1011 10 16.0934 0 0
2:53 pm 14:53 Mostly Cloudy 57 14 N/A N/A WSW 6 9 29.83 1010 10 16.0934 0 0
3:53 pm 15:53 Mostly Sunny 61 16 N/A N/A NNE 6 9 29.82 1010 10 16.0934 0 0
4:53 pm 16:53 Sunny 59 15 N/A N/A WNW 5 7 29.81 1010 10 16.0934 0 0
5:53 pm 17:53 Sunny 59 15 N/A N/A VRB 3 6 29.83 1010 10 16.0934 0 0
6:40 pm 18:40 Mostly Cloudy 55 13 N/A N/A NNE 14 22 29.8 1009 10 16.0934 0 0
6:53 pm 18:53 Mostly Cloudy with Nearby Thunderstorms 54 12 N/A N/A NNE 17 28 29.85 1011 10 16.0934 0 0
7:21 pm 19:21 Cloudy with Thunderstorms 50 10 N/A N/A NNW 20 31 29.88 1012 10 16.0934 0 0
7:53 pm 19:53 Cloudy 48 9 N/A N/A W 9 15 29.9 1012 10 16.0934 0 0
8:53 pm 20:53 Cloudy 48 9 N/A N/A NW 12 19 29.91 1013 10 16.0934 0 0
9:08 pm 21:08 Cloudy 48 9 N/A N/A NW 10 17 29.91 1013 10 16.0934 0 0
9:37 pm 21:37 Cloudy 48 9 N/A N/A NNW 7 11 29.91 1013 10 16.0934 0 0
9:53 pm 21:53 Cloudy 46 8 N/A N/A WNW 8 13 29.93 1014 10 16.0934 0 0
10:39 pm 22:39 Mostly Cloudy 45 7 N/A N/A WNW 12 19 29.97 1015 10 16.0934 0 0
10:53 pm 22:53 Cloudy 45 7 N/A N/A WNW 10 17 29.95 1014 10 16.0934 0 0
11:53 pm 23:53 Cloudy 46 8 N/A N/A NNW 17 28 29.93 1014 10 16.0934 0 0

Powered by AerisWeather